When you browse on this site, cookies collect data to enhance your experience and personalize the content and advertising you see.
Visit our Privacy Policy to learn more. By continuing to use the site, you agree to this use of cookies and data.
  • en Suisse
  • Liste des pays
  • À 7 jours
  • Température de l'eau
  • Carte satellitaire
  • Carte météo
  • Widgets météo
  • user-avatar
    Se connecter

    Météo par heure à Znamenskoe

    Ce jour, 22 Juillet, Lundi

    Heure Température Précipitation Vent Pression Humidité
    00:00 +15°C° 0 mm 2 m/s 743 mmHg 90%
    01:00 +15°C° 0 mm 2 m/s 743 mmHg 91%
    02:00 +14°C° 0 mm 2 m/s 743 mmHg 91%
    03:00 +14°C° 0 mm 2 m/s 743 mmHg 92%
    04:00 +14°C° 0 mm 1 m/s 743 mmHg 92%
    05:00 +15°C° 0 mm 1 m/s 743 mmHg 91%
    06:00 +15°C° 0 mm 1 m/s 743 mmHg 91%
    07:00 +18°C° 0 mm 1 m/s 743 mmHg 86%
    08:00 +19°C° 0 mm 1 m/s 743 mmHg 82%
    09:00 +21°C° 0 mm 1 m/s 743 mmHg 77%
    10:00 +22°C° 0.3 mm 1 m/s 743 mmHg 72%
    11:00 +23°C° 0.3 mm 1 m/s 743 mmHg 68%
    12:00 +24°C° 0.3 mm 1 m/s 743 mmHg 64%
    13:00 +24°C° 0.3 mm 1 m/s 742 mmHg 62%
    14:00 +24°C° 0.3 mm 1 m/s 742 mmHg 61%
    15:00 +25°C° 0.3 mm 1 m/s 742 mmHg 60%
    16:00 +25°C° 0.1 mm 1 m/s 742 mmHg 62%
    17:00 +25°C° 0.1 mm 1 m/s 742 mmHg 64%
    18:00 +25°C° 0.1 mm 1 m/s 741 mmHg 66%
    19:00 +23°C° 0.1 mm 1 m/s 741 mmHg 71%
    20:00 +21°C° 0.1 mm 1 m/s 741 mmHg 76%
    21:00 +19°C° 0.1 mm 1 m/s 741 mmHg 81%
    22:00 +19°C° 0 mm 1 m/s 741 mmHg 82%
    23:00 +18°C° 0 mm 1 m/s 740 mmHg 83%

    Demain, 23 Juillet, Mardi

    Heure Température Précipitation Vent Pression Humidité
    00:00 +18°C° 0 mm 1 m/s 740 mmHg 84%
    01:00 +17°C° 0 mm 2 m/s 740 mmHg 85%
    02:00 +17°C° 0 mm 2 m/s 740 mmHg 86%
    03:00 +17°C° 0 mm 2 m/s 740 mmHg 87%
    04:00 +18°C° 0.4 mm 1 m/s 740 mmHg 90%
    05:00 +18°C° 0.4 mm 1 m/s 739 mmHg 92%
    06:00 +18°C° 0.4 mm 1 m/s 739 mmHg 95%
    07:00 +17°C° 0.5 mm 2 m/s 739 mmHg 94%
    08:00 +17°C° 0.5 mm 2 m/s 739 mmHg 94%
    09:00 +17°C° 0.5 mm 3 m/s 739 mmHg 94%
    10:00 +18°C° 0.6 mm 3 m/s 739 mmHg 94%
    11:00 +18°C° 0.6 mm 4 m/s 739 mmHg 94%
    12:00 +18°C° 0.6 mm 4 m/s 739 mmHg 93%
    13:00 +19°C° 0.2 mm 4 m/s 739 mmHg 90%
    14:00 +20°C° 0.2 mm 4 m/s 739 mmHg 88%
    15:00 +21°C° 0.2 mm 4 m/s 738 mmHg 85%
    16:00 +21°C° 0.4 mm 4 m/s 738 mmHg 85%
    17:00 +21°C° 0.4 mm 4 m/s 738 mmHg 86%
    18:00 +21°C° 0.4 mm 4 m/s 738 mmHg 86%
    19:00 +20°C° 1.1 mm 3 m/s 738 mmHg 89%
    20:00 +19°C° 1.1 mm 3 m/s 738 mmHg 92%
    21:00 +18°C° 1.1 mm 3 m/s 738 mmHg 95%
    22:00 +18°C° 0.5 mm 3 m/s 738 mmHg 96%
    23:00 +17°C° 0.5 mm 2 m/s 738 mmHg 96%

    Après-demain, 24 Juillet, Mercredi

    Heure Température Précipitation Vent Pression Humidité
    00:00 +16°C° 0.5 mm 2 m/s 738 mmHg 97%
    01:00 +16°C° 0 mm 1 m/s 738 mmHg 97%
    02:00 +16°C° 0 mm 1 m/s 738 mmHg 97%
    03:00 +16°C° 0 mm 1 m/s 738 mmHg 97%
    04:00 +16°C° 0 mm 1 m/s 738 mmHg 97%
    05:00 +16°C° 0 mm 1 m/s 738 mmHg 96%
    06:00 +18°C° 0 mm 1 m/s 738 mmHg 96%
    07:00 +18°C° 0 mm 1 m/s 738 mmHg 95%
    08:00 +19°C° 0 mm 1 m/s 738 mmHg 93%
    09:00 +20°C° 0 mm 1 m/s 738 mmHg 91%
    10:00 +20°C° 0 mm 1 m/s 739 mmHg 90%
    11:00 +21°C° 0 mm 1 m/s 739 mmHg 88%
    12:00 +21°C° 0 mm 1 m/s 739 mmHg 86%
    13:00 +22°C° 0.6 mm 1 m/s 739 mmHg 84%
    14:00 +21°C° 0.6 mm 2 m/s 739 mmHg 81%
    15:00 +23°C° 0.6 mm 2 m/s 739 mmHg 78%
    16:00 +21°C° 0.5 mm 2 m/s 740 mmHg 83%
    17:00 +19°C° 0.5 mm 2 m/s 740 mmHg 87%
    18:00 +18°C° 0.5 mm 2 m/s 740 mmHg 92%
    19:00 +18°C° 0.1 mm 2 m/s 740 mmHg 92%
    20:00 +18°C° 0.1 mm 3 m/s 740 mmHg 92%
    21:00 +18°C° 0.1 mm 3 m/s 740 mmHg 92%
    22:00 +18°C° 0 mm 3 m/s 740 mmHg 92%
    23:00 +18°C° 0 mm 3 m/s 741 mmHg 92%

    25 Juillet, Jeudi

    Heure Température Précipitation Vent Pression Humidité
    00:00 +18°C° 0 mm 2 m/s 741 mmHg 92%
    01:00 +17°C° 0 mm 3 m/s 741 mmHg 93%
    02:00 +17°C° 0 mm 3 m/s 741 mmHg 94%
    03:00 +17°C° 0 mm 3 m/s 741 mmHg 95%
    04:00 +17°C° 0 mm 3 m/s 741 mmHg 95%
    05:00 +17°C° 0 mm 3 m/s 741 mmHg 95%
    06:00 +17°C° 0 mm 3 m/s 742 mmHg 94%
    07:00 +18°C° 0 mm 3 m/s 742 mmHg 92%
    08:00 +19°C° 0 mm 3 m/s 742 mmHg 90%
    09:00 +21°C° 0 mm 3 m/s 743 mmHg 88%
    10:00 +21°C° 0.3 mm 4 m/s 743 mmHg 86%
    11:00 +22°C° 0.3 mm 4 m/s 743 mmHg 85%
    12:00 +22°C° 0.3 mm 4 m/s 743 mmHg 83%
    13:00 +23°C° 0.6 mm 4 m/s 743 mmHg 80%
    14:00 +23°C° 0.6 mm 5 m/s 743 mmHg 77%
    15:00 +25°C° 0.6 mm 5 m/s 743 mmHg 74%
    16:00 +23°C° 0.3 mm 4 m/s 743 mmHg 76%
    17:00 +24°C° 0.3 mm 3 m/s 743 mmHg 78%
    18:00 +22°C° 0.3 mm 3 m/s 742 mmHg 80%
    19:00 +21°C° 0 mm 3 m/s 743 mmHg 83%
    20:00 +20°C° 0 mm 2 m/s 743 mmHg 86%
    21:00 +19°C° 0 mm 2 m/s 743 mmHg 89%
    22:00 +18°C° 0 mm 2 m/s 743 mmHg 91%
    23:00 +18°C° 0 mm 2 m/s 743 mmHg 92%

    26 Juillet, Vendredi

    Heure Température Précipitation Vent Pression Humidité
    00:00 +17°C° 0 mm 3 m/s 743 mmHg 93%
    01:00 +17°C° 0 mm 2 m/s 743 mmHg 93%
    02:00 +16°C° 0 mm 2 m/s 743 mmHg 93%
    03:00 +16°C° 0 mm 2 m/s 742 mmHg 94%
    04:00 +16°C° 0 mm 2 m/s 742 mmHg 93%
    05:00 +16°C° 0 mm 2 m/s 742 mmHg 93%
    06:00 +16°C° 0 mm 3 m/s 742 mmHg 92%
    07:00 +17°C° 0 mm 3 m/s 742 mmHg 88%
    08:00 +19°C° 0 mm 3 m/s 742 mmHg 84%
    09:00 +20°C° 0 mm 4 m/s 742 mmHg 80%
    10:00 +21°C° 0.1 mm 4 m/s 742 mmHg 75%
    11:00 +22°C° 0.1 mm 5 m/s 742 mmHg 70%
    12:00 +23°C° 0.1 mm 5 m/s 742 mmHg 66%
    13:00 +23°C° 0 mm 5 m/s 742 mmHg 64%
    14:00 +23°C° 0 mm 6 m/s 741 mmHg 62%
    15:00 +23°C° 0 mm 6 m/s 741 mmHg 61%
    16:00 +23°C° 0 mm 5 m/s 741 mmHg 64%
    17:00 +23°C° 0 mm 4 m/s 741 mmHg 68%
    18:00 +24°C° 0 mm 3 m/s 741 mmHg 72%
    19:00 +21°C° 0 mm 3 m/s 741 mmHg 73%
    20:00 +19°C° 0 mm 4 m/s 741 mmHg 74%
    21:00 +18°C° 0 mm 4 m/s 741 mmHg 75%
    22:00 +17°C° 0 mm 4 m/s 741 mmHg 79%
    23:00 +15°C° 0 mm 4 m/s 741 mmHg 84%

    27 Juillet, Samedi

    Heure Température Précipitation Vent Pression Humidité
    00:00 +13°C° 0 mm 4 m/s 741 mmHg 88%
    01:00 +13°C° 0 mm 4 m/s 741 mmHg 90%
    02:00 +12°C° 0 mm 3 m/s 741 mmHg 92%
    03:00 +12°C° 0 mm 3 m/s 740 mmHg 95%
    04:00 +12°C° 0 mm 3 m/s 741 mmHg 93%
    05:00 +12°C° 0 mm 3 m/s 741 mmHg 92%
    06:00 +13°C° 0 mm 4 m/s 741 mmHg 91%
    07:00 +14°C° 0 mm 4 m/s 740 mmHg 86%
    08:00 +15°C° 0 mm 4 m/s 740 mmHg 82%
    09:00 +17°C° 0 mm 4 m/s 740 mmHg 77%
    10:00 +18°C° 0 mm 4 m/s 740 mmHg 72%
    11:00 +20°C° 0 mm 4 m/s 740 mmHg 68%
    12:00 +21°C° 0 mm 4 m/s 740 mmHg 63%
    13:00 +21°C° 0 mm 4 m/s 740 mmHg 63%
    14:00 +21°C° 0 mm 4 m/s 739 mmHg 63%
    15:00 +22°C° 0 mm 4 m/s 739 mmHg 63%
    16:00 +21°C° 0 mm 4 m/s 738 mmHg 66%
    17:00 +20°C° 0 mm 4 m/s 738 mmHg 70%
    18:00 +20°C° 0 mm 3 m/s 738 mmHg 73%
    19:00 +19°C° 0 mm 2 m/s 737 mmHg 76%
    20:00 +17°C° 0 mm 2 m/s 737 mmHg 78%
    21:00 +16°C° 0 mm 1 m/s 737 mmHg 80%
    22:00 +16°C° 0.1 mm 1 m/s 737 mmHg 81%
    23:00 +18°C° 0.1 mm 1 m/s 736 mmHg 81%
    Voir plus